Regional Weather Roundup
Issued by NWS Northern Indiana

Home | Current Version | Previous Version | Graphics & Text | Print | Product List | Glossary On
Versions: 1 2 3 4 5 6 7 8 9 10 11 12 13 14 15 16 17 18 19 20 21 22 23 24 25 26 27 28 29 30 31 32 33 34 35 36 37 38 39 40 41 42 43 44 45 46 47 48 49 50
000
ASUS43 KIWX 241409
RWRIWX

KIWX WEATHER ROUNDUP
NATIONAL WEATHER SERVICE NORTHERN INDIANA
1000 AM EDT MON APR 24 2017

NOTE: "FAIR" INDICATES FEW OR NO CLOUDS BELOW 12,000 FEET WITH NO
SIGNIFICANT WEATHER AND/OR OBSTRUCTIONS TO VISIBILITY.

* THESE STATIONS ARE NOT UNDER NWS QUALITY CONTROL. THEY ALSO MAY NOT
  REPORT WEATHER SUCH AS PRECIPITATION OR FOG.

INZ001>027-241500-
NORTHERN INDIANA

CITY           SKY/WX    TMP DP  RH WIND       PRES   REMARKS
GARY*          MOSUNNY   52  43  71 CALM      30.04S
VALPARAISO     SUNNY     61  32  33 E9        30.04R
KNOX*          SUNNY     59   5  11 E6        30.02S
SOUTH BEND     SUNNY     58  31  35 E8        30.05F
ELKHART*       SUNNY     57  32  38 E6        30.04F
GOSHEN         SUNNY     57  35  43 E13       30.03F
WARSAW*        SUNNY     57  32  38 E9        30.03F
ROCHESTER*     SUNNY     61  28  29 E10G16    30.02F
FORT WAYNE     MOSUNNY   56  34  43 E13       30.03S
PERU/GRISSOM   SUNNY     58  34  40 E9        30.00S
MARION*        SUNNY     57  34  41 E10       30.01R

$$

INZ028>050-241500-
CENTRAL INDIANA

CITY           SKY/WX    TMP DP  RH WIND       PRES   REMARKS
LAFAYETTE      SUNNY     57  40  52 E8        30.00S
KOKOMO*        SUNNY     59  35  40 E9        30.02R
MUNCIE*        SUNNY     61  33  35 E13       29.98F
INDIANAPOLIS   MOSUNNY   60  36  40 NE10      29.97R

$$

MIZ043>046-050>051-056>058-064>065-071>073-077>080-241500-
SOUTHWEST LOWER MICHIGAN

CITY           SKY/WX    TMP DP  RH WIND       PRES   REMARKS
BATTLE CREEK   SUNNY     57  37  47 E5        30.07S
BENTON HARBOR  SUNNY     61  28  28 E8        30.05S
COLDWATER*     SUNNY     57  33  39 E6        30.05S
HILLSDALE*     SUNNY     55  34  44 E10       30.05S
HOLLAND        SUNNY     52  42  69 E6        30.07S
GRAND RAPIDS   MOSUNNY   51  41  68 E8        30.08S
KALAMAZOO      SUNNY     58  35  42 VRB3      30.07S
STURGIS*       SUNNY     58  33  37 E12       30.04S
THREE RIVERS*  FAIR      58  33  39 SE5       30.06S

$$

OHZ001>008-015>018-024>025-241500-
NORTHWEST OHIO

CITY           SKY/WX    TMP DP  RH WIND       PRES   REMARKS
DEFIANCE       SUNNY     53  38  56 NE10      30.05S
FINDLAY        SUNNY     58  34  40 E14       30.01F
TOLEDO EXPRESS SUNNY     56  35  45 E13       30.05S
TOLEDO METCALF SUNNY     56  37  49 NE13G21   30.06F
LIMA           SUNNY     56  37  49 NE12      30.00F

$$




USA.gov is the U.S. government's official web portal to all federal, state and local government web resources and services.